Flag for Morocco Weather past 2 weeks in Tangier, Morocco

Now
72 °F

Clear.


Feels Like: 72 °F
Forecast: N/A
Wind: No wind

Location: Tanger Aerodrome

Current Time: Jul 2, 2015 at 10:14:05 PM

Latest Report: Jul 2, 2015 at 9:30 PM


Visibility: 10 mi

Pressure: 30.07 "Hg

Humidity: 78%

Dew point: 64 °F

Location of TangierLocation

Historic Weather in Tangier — Graph

°F

Tangier temperature yesterday

Maximum temperature yesterday: 75 °F (at 1:30 PM)
Minimum temperature yesterday: 68 °F (at 4:30 AM)
Average temperature yesterday: 71 °F

Past Weeks' High & Low Weather Summary

 TemperatureHumidityPressure
High99 °F (Jun 27, 12:00 PM)94% (Jun 21, 4:30 AM)30.12 "Hg (Jun 21, 4:30 AM)
Low61 °F (Jun 25, 12:30 AM)10% (Jun 27, 6:00 PM)29.89 "Hg (Jun 19, 5:30 PM)
Average74 °F61%30.02 "Hg
* Reported Jun 17 8:00 PM — Jul 2 8:30 PM, Tangier, Weather by CustomWeather, © 2015

Note: Actual official high and low records may vary slightly from our data, if they occured in-between our weather recording intervals... More about our weather records

Advertising

Tangier weather history for previous 24 hours

 ConditionsComfort  
Time TempWeatherWind HumidityBarometerVisibility
8:30 PM
Thu, Jul 2
72 °FClear.2 mph73%30.04 "Hg10 mi
8:00 PM73 °FClear.2 mph74%30.04 "Hg10 mi
7:30 PM73 °FPassing clouds.5 mph69%30.04 "HgN/A
7:00 PM75 °FPassing clouds.5 mph65%30.04 "HgN/A
6:30 PM75 °FSunny.8 mph69%30.04 "Hg10 mi
6:00 PM77 °FSunny.9 mph65%30.04 "Hg10 mi
5:30 PM77 °FPassing clouds.10 mph65%30.04 "HgN/A
5:00 PM77 °FPassing clouds.12 mph65%30.04 "HgN/A
4:00 PM77 °FPassing clouds.10 mph65%30.04 "HgN/A
3:30 PM77 °FPassing clouds.9 mph65%30.07 "HgN/A
3:00 PM77 °FPassing clouds.10 mph65%30.07 "HgN/A
2:30 PM77 °FPassing clouds.10 mph65%30.07 "HgN/A
1:30 PM77 °FPartly sunny.12 mph69%30.07 "HgN/A
1:00 PM77 °FPartly sunny.12 mph65%30.09 "HgN/A
12:30 PM77 °FPartly sunny.12 mph65%30.09 "HgN/A
12:00 PM77 °FPartly sunny.12 mph65%30.09 "HgN/A
11:30 AM77 °FWarm.12 mph65%30.09 "HgN/A
11:00 AM75 °FMild.10 mph74%30.09 "HgN/A
10:30 AM77 °FPartly sunny.12 mph65%30.09 "HgN/A
10:00 AM77 °FPartly sunny.10 mph65%30.09 "HgN/A
9:30 AM75 °FPartly sunny.12 mph69%30.09 "HgN/A
9:00 AM73 °FPartly sunny.12 mph74%30.09 "HgN/A
8:30 AM75 °FScattered clouds.10 mph69%30.09 "HgN/A
8:00 AM72 °FScattered clouds.8 mph78%30.09 "HgN/A
7:30 AM72 °FScattered clouds.7 mph78%30.07 "HgN/A
7:00 AM70 °FPartly sunny.6 mph78%30.07 "HgN/A
6:30 AM68 °FPartly sunny.7 mph83%30.07 "HgN/A
6:00 AM68 °FPartly sunny.6 mph83%30.07 "HgN/A
5:30 AM68 °FPartly sunny.6 mph78%30.07 "Hg5 mi
5:00 AM70 °FPassing clouds.7 mph78%30.07 "Hg5 mi
4:30 AM70 °FPassing clouds.6 mph73%30.07 "Hg5 mi
4:00 AM70 °FPassing clouds.7 mph73%30.07 "Hg5 mi
3:30 AM70 °FPassing clouds.6 mph73%30.07 "Hg5 mi
3:00 AM70 °FPassing clouds.7 mph78%30.07 "Hg5 mi
2:30 AM70 °FPassing clouds.6 mph78%30.07 "Hg5 mi
2:00 AM70 °FPassing clouds.7 mph78%30.07 "Hg5 mi
1:30 AM68 °FPassing clouds.8 mph78%30.07 "Hg5 mi
1:00 AM68 °FPassing clouds.7 mph83%30.07 "Hg5 mi
12:30 AM68 °FPassing clouds.6 mph83%30.09 "HgN/A
12:00 AM70 °FPassing clouds.6 mph78%30.09 "HgN/A
11:30 PM
Wed, Jul 1
68 °FPassing clouds.5 mph83%30.09 "HgN/A
11:00 PM68 °FPassing clouds.6 mph83%30.09 "HgN/A
10:30 PM68 °FPassing clouds.6 mph83%30.09 "HgN/A
10:00 PM68 °FPassing clouds.7 mph78%30.09 "HgN/A
Weather by CustomWeather, © 2015

See weather overviewHow to use our weather pages